Location: Guferjoch
(46.7462°N, 8.4506°E)
Time: 23:40:47
(UTC+00:00)

Meteor 1-29 - Pass Details

Date: 14 July 2020
Orbit: 440 x 459 km, 97.7° (Epoch: 14 August)

Event Time Altitude Azimuth Distance (km) Brightness Sun altitude
Rises 00:54:47 0° 5° (N) 2,465 8.1 -19.1°
Reaches altitude 10° 00:56:55 10° 356° (N) 1,591 6.6 -19.0°
Maximum altitude 01:00:03 35° 289° (WNW) 752 3.9 -18.8°
Enters shadow 01:00:31 33° 270° (W) 780 3.9 -18.8°
